Location: Fort Wayne
(41.1310°N, 85.1290°W)
Time: 18:24:02
(UTC-04:00)

SR - Visible Passes

Search period start: 22 October 2014 00:00
Search period end: 01 November 2014 00:00
Orbit: 576 x 889 km, 66.7° (Epoch: 22 October)

Date Brightness Start Highest point End Pass type
(mag) Time Alt. Az. Time Alt. Az. Time Alt. Az.
29 Oct ? 21:34:04 10° N 21:34:11 10° N 21:34:11 10° N visible
30 Oct ? 20:46:53 10° NNE 20:47:07 10° NNE 20:47:07 10° NNE visible
31 Oct ? 21:38:59 10° NNW 21:39:35 13° N 21:39:35 13° N visible
